N391DM LQPD-LHPP

Flight info

Callsign N391DM
Flight time 0h 41m
Altitude 7000
Route 450923N0180024E 455109N0181744E/N0180F060 DCT 460555N0181313E
Aircraft BE36/L-BDFGLORY/S

Departure

Time 2026-05-04 22:10
Airport Prijedor Urije Airfield (LQPD)

Arrival

Time 2026-05-04 22:52
Airport Pécs-Pogány International Airport (LHPP)
Time Latitude Longitude Altitude Speed Heading
2026-05-04 21:56 44.99099 16.73508 555 ft 0 kts
2026-05-04 22:06 44.99110 16.73498 559 ft 2 kts 349°
2026-05-04 22:06 44.99119 16.73499 558 ft 1 kts 11°
2026-05-04 22:06 44.99148 16.73511 552 ft 9 kts
2026-05-04 22:07 44.99226 16.73520 552 ft 11 kts
2026-05-04 22:07 44.99290 16.73533 552 ft 8 kts
2026-05-04 22:07 44.99333 16.73541 552 ft 4 kts
2026-05-04 22:07 44.99355 16.73536 554 ft 4 kts 306°
2026-05-04 22:08 44.99355 16.73469 552 ft 7 kts 269°
2026-05-04 22:08 44.99353 16.73397 552 ft 7 kts 265°
2026-05-04 22:08 44.99351 16.73373 552 ft 0 kts 287°
2026-05-04 22:08 44.99355 16.73368 552 ft 1 kts 23°
2026-05-04 22:09 44.99357 16.73373 552 ft 1 kts 97°
2026-05-04 22:09 44.99360 16.73663 553 ft 62 kts 90°
2026-05-04 22:09 44.99332 16.74472 666 ft 95 kts 97°
2026-05-04 22:09 44.99304 16.74766 729 ft 102 kts 96°
2026-05-04 22:10 44.99142 16.75865 886 ft 126 kts 97°
2026-05-04 22:10 44.99090 16.77174 1084 ft 138 kts 92°
2026-05-04 22:10 44.99169 16.78514 1385 ft 138 kts 74°
2026-05-04 22:10 44.99428 16.79827 1732 ft 139 kts 75°
2026-05-04 22:11 44.99691 16.81146 2099 ft 139 kts 75°
2026-05-04 22:11 44.99955 16.82473 2468 ft 139 kts 75°
2026-05-04 22:11 45.00220 16.83771 2844 ft 141 kts 74°
2026-05-04 22:11 45.00491 16.85110 3198 ft 140 kts 75°
2026-05-04 22:12 45.00750 16.86420 3556 ft 135 kts 75°
2026-05-04 22:12 45.01003 16.87666 3922 ft 128 kts 75°
2026-05-04 22:12 45.01245 16.88864 4270 ft 126 kts 74°
2026-05-04 22:12 45.01487 16.90054 4564 ft 126 kts 74°
2026-05-04 22:13 45.01728 16.91242 4851 ft 125 kts 75°
2026-05-04 22:13 45.01971 16.92431 5138 ft 126 kts 74°
2026-05-04 22:13 45.02215 16.93621 5380 ft 126 kts 75°
2026-05-04 22:13 45.02465 16.94813 5650 ft 126 kts 74°
2026-05-04 22:14 45.02712 16.96004 5880 ft 127 kts 75°
2026-05-04 22:14 45.02963 16.97202 6139 ft 127 kts 74°
2026-05-04 22:14 45.03215 16.98399 6409 ft 127 kts 75°
2026-05-04 22:14 45.03471 16.99595 6639 ft 127 kts 74°
2026-05-04 22:15 45.03729 17.00792 6858 ft 127 kts 75°
2026-05-04 22:15 45.03991 17.01998 6999 ft 133 kts 75°
2026-05-04 22:15 45.04271 17.03301 7008 ft 146 kts 75°
2026-05-04 22:15 45.04574 17.04724 7013 ft 156 kts 75°
2026-05-04 22:16 45.04890 17.06228 7015 ft 162 kts 75°
2026-05-04 22:16 45.05220 17.07797 7012 ft 171 kts 75°
2026-05-04 22:16 45.05565 17.09435 7015 ft 175 kts 75°
2026-05-04 22:16 45.05909 17.11095 7008 ft 175 kts 75°
2026-05-04 22:17 45.06247 17.12735 7011 ft 173 kts 75°
2026-05-04 22:17 45.06584 17.14365 7016 ft 174 kts 75°
2026-05-04 22:17 45.06926 17.16011 7008 ft 174 kts 75°
2026-05-04 22:17 45.07262 17.17649 7012 ft 173 kts 75°
2026-05-04 22:18 45.07602 17.19290 7007 ft 174 kts 75°
2026-05-04 22:18 45.07941 17.20936 7011 ft 175 kts 75°
2026-05-04 22:18 45.08233 17.22597 7013 ft 174 kts 82°
2026-05-04 22:18 45.08413 17.24296 7017 ft 175 kts 83°
2026-05-04 22:19 45.08588 17.25979 7016 ft 176 kts 83°
2026-05-04 22:19 45.08686 17.27701 7016 ft 175 kts 90°
2026-05-04 22:19 45.08713 17.29427 7020 ft 176 kts 90°
2026-05-04 22:19 45.08741 17.31154 7015 ft 175 kts 90°
2026-05-04 22:20 45.08769 17.32883 7006 ft 176 kts 90°
2026-05-04 22:20 45.08795 17.34611 7002 ft 175 kts 90°
2026-05-04 22:20 45.08820 17.36334 7005 ft 175 kts 90°
2026-05-04 22:20 45.08790 17.38045 6999 ft 173 kts 103°
2026-05-04 22:21 45.08458 17.39680 7003 ft 172 kts 104°
2026-05-04 22:21 45.08375 17.41349 7002 ft 174 kts 85°
2026-05-04 22:21 45.08570 17.43053 7004 ft 176 kts 80°
2026-05-04 22:21 45.08800 17.44760 7004 ft 176 kts 80°
2026-05-04 22:22 45.09026 17.46466 7002 ft 177 kts 80°
2026-05-04 22:22 45.09245 17.48183 7005 ft 177 kts 81°
2026-05-04 22:22 45.09462 17.49895 7002 ft 176 kts 80°
2026-05-04 22:22 45.09684 17.51605 7003 ft 176 kts 80°
2026-05-04 22:23 45.09905 17.53323 6999 ft 178 kts 81°
2026-05-04 22:23 45.10121 17.55044 6995 ft 177 kts 81°
2026-05-04 22:23 45.10337 17.56744 6992 ft 175 kts 80°
2026-05-04 22:23 45.10553 17.58449 6994 ft 176 kts 80°
2026-05-04 22:24 45.10769 17.60153 6992 ft 176 kts 80°
2026-05-04 22:24 45.10981 17.61827 6993 ft 176 kts 80°
2026-05-04 22:24 45.11196 17.63534 6990 ft 176 kts 80°
2026-05-04 22:24 45.11413 17.65246 6990 ft 175 kts 80°
2026-05-04 22:25 45.11629 17.66941 6990 ft 174 kts 80°
2026-05-04 22:25 45.11840 17.68624 6986 ft 173 kts 80°
2026-05-04 22:25 45.12052 17.70305 6987 ft 173 kts 80°
2026-05-04 22:25 45.12261 17.71986 6991 ft 174 kts 80°
2026-05-04 22:26 45.12477 17.73681 6985 ft 175 kts 80°
2026-05-04 22:26 45.12687 17.75375 6983 ft 175 kts 80°
2026-05-04 22:26 45.12901 17.77067 6986 ft 174 kts 80°
2026-05-04 22:26 45.13107 17.78728 6991 ft 173 kts 80°
2026-05-04 22:27 45.13316 17.80402 6985 ft 173 kts 80°
2026-05-04 22:27 45.13525 17.82074 6985 ft 172 kts 80°
2026-05-04 22:27 45.13734 17.83750 6988 ft 173 kts 80°
2026-05-04 22:27 45.13942 17.85424 6989 ft 173 kts 80°
2026-05-04 22:28 45.14151 17.87104 6990 ft 173 kts 80°
2026-05-04 22:28 45.14361 17.88788 6988 ft 173 kts 80°
2026-05-04 22:28 45.14568 17.90468 6987 ft 173 kts 80°
2026-05-04 22:28 45.14778 17.92153 6991 ft 174 kts 80°
2026-05-04 22:29 45.14985 17.93823 6993 ft 175 kts 80°
2026-05-04 22:29 45.15193 17.95531 6994 ft 176 kts 80°
2026-05-04 22:29 45.15522 17.97187 6990 ft 175 kts 61°
2026-05-04 22:29 45.16296 17.98490 6985 ft 173 kts 37°
2026-05-04 22:30 45.17372 17.99223 6988 ft 172 kts 13°
2026-05-04 22:30 45.18545 17.99560 6992 ft 172 kts 11°
2026-05-04 22:30 45.19719 17.99916 6987 ft 172 kts 11°
2026-05-04 22:30 45.20892 18.00260 6989 ft 172 kts 11°
2026-05-04 22:31 45.22060 18.00605 6988 ft 171 kts 11°
2026-05-04 22:31 45.23225 18.00947 6994 ft 172 kts 10°
2026-05-04 22:31 45.24400 18.01295 6987 ft 172 kts 11°
2026-05-04 22:31 45.25569 18.01645 6985 ft 171 kts 11°
2026-05-04 22:32 45.26741 18.01990 6994 ft 172 kts 11°
2026-05-04 22:32 45.27902 18.02335 6987 ft 173 kts 11°
2026-05-04 22:32 45.29075 18.02682 6986 ft 172 kts 11°
2026-05-04 22:32 45.30244 18.03028 6986 ft 172 kts 11°
2026-05-04 22:33 45.31418 18.03375 6985 ft 172 kts 11°
2026-05-04 22:33 45.32589 18.03725 6986 ft 171 kts 11°
2026-05-04 22:33 45.33754 18.04070 6985 ft 171 kts 11°
2026-05-04 22:33 45.34922 18.04415 6991 ft 171 kts 11°
2026-05-04 22:34 45.36084 18.04761 6990 ft 173 kts 11°
2026-05-04 22:34 45.37267 18.05114 6987 ft 173 kts 11°
2026-05-04 22:34 45.38441 18.05463 6986 ft 172 kts 11°
2026-05-04 22:34 45.39611 18.05811 6987 ft 172 kts 11°
2026-05-04 22:35 45.40784 18.06159 6988 ft 171 kts 11°
2026-05-04 22:35 45.41952 18.06507 6989 ft 171 kts 11°
2026-05-04 22:35 45.43119 18.06854 6986 ft 171 kts 11°
2026-05-04 22:35 45.44272 18.07199 6988 ft 171 kts 11°
2026-05-04 22:36 45.45436 18.07544 6987 ft 170 kts 11°
2026-05-04 22:36 45.46600 18.07891 6989 ft 170 kts 11°
2026-05-04 22:36 45.47763 18.08238 6992 ft 170 kts 11°
2026-05-04 22:36 45.48925 18.08585 6994 ft 171 kts 11°
2026-05-04 22:37 45.50083 18.08931 6993 ft 172 kts 11°
2026-05-04 22:37 45.51258 18.09283 6992 ft 172 kts 11°
2026-05-04 22:37 45.52429 18.09633 6996 ft 173 kts 11°
2026-05-04 22:37 45.53607 18.09984 6992 ft 173 kts 11°
2026-05-04 22:38 45.54778 18.10335 6995 ft 172 kts 11°
2026-05-04 22:38 45.55949 18.10686 6996 ft 172 kts 11°
2026-05-04 22:38 45.57120 18.11036 6994 ft 172 kts 11°
2026-05-04 22:38 45.58295 18.11387 6995 ft 173 kts 11°
2026-05-04 22:39 45.59073 18.11620 6993 ft 172 kts 11°
2026-05-04 22:39 45.60241 18.11970 6993 ft 171 kts 11°
2026-05-04 22:39 45.61408 18.12320 6989 ft 171 kts 11°
2026-05-04 22:39 45.62965 18.12787 6992 ft 172 kts 11°
2026-05-04 22:40 45.64137 18.13137 6991 ft 172 kts 11°
2026-05-04 22:40 45.64911 18.13373 6994 ft 172 kts 11°
2026-05-04 22:40 45.66487 18.13845 6939 ft 175 kts 11°
2026-05-04 22:40 45.67690 18.14208 6850 ft 179 kts 11°
2026-05-04 22:41 45.68916 18.14574 6754 ft 181 kts 11°
2026-05-04 22:41 45.70139 18.14944 6669 ft 183 kts 11°
2026-05-04 22:41 45.71388 18.15320 6573 ft 183 kts 11°
2026-05-04 22:41 45.72633 18.15694 6478 ft 182 kts 11°
2026-05-04 22:42 45.73875 18.16069 6379 ft 183 kts 11°
2026-05-04 22:42 45.75127 18.16446 6279 ft 184 kts 11°
2026-05-04 22:42 45.76379 18.16822 6184 ft 184 kts 11°
2026-05-04 22:42 45.77623 18.17199 6081 ft 180 kts 11°
2026-05-04 22:43 45.78429 18.17442 5993 ft 177 kts 11°
2026-05-04 22:43 45.79631 18.17804 5866 ft 175 kts 11°
2026-05-04 22:43 45.81202 18.18278 5698 ft 174 kts 11°
2026-05-04 22:43 45.81982 18.18515 5617 ft 173 kts 12°
2026-05-04 22:44 45.83162 18.18869 5488 ft 172 kts 12°
2026-05-04 22:44 45.84335 18.19226 5363 ft 172 kts 12°
2026-05-04 22:44 45.85501 18.19577 5246 ft 171 kts 12°
2026-05-04 22:44 45.86667 18.19932 5118 ft 171 kts 12°
2026-05-04 22:45 45.87828 18.20284 5000 ft 170 kts 12°
2026-05-04 22:45 45.90163 18.20991 4754 ft 172 kts 12°
2026-05-04 22:45 45.91338 18.21345 4591 ft 173 kts 12°
2026-05-04 22:46 45.92518 18.21703 4419 ft 174 kts 12°
2026-05-04 22:46 45.93722 18.22056 4244 ft 179 kts 13°
2026-05-04 22:46 45.94918 18.22437 4066 ft 177 kts 13°
2026-05-04 22:46 45.96126 18.22803 3898 ft 179 kts 13°
2026-05-04 22:47 45.97349 18.23172 3726 ft 180 kts 13°
2026-05-04 22:47 45.98568 18.23133 3545 ft 174 kts 342°
2026-05-04 22:47 45.99703 18.22534 3377 ft 174 kts 339°
2026-05-04 22:47 46.00841 18.21931 3200 ft 175 kts 339°
2026-05-04 22:48 46.01990 18.21313 3025 ft 178 kts 339°
2026-05-04 22:48 46.03157 18.20688 2851 ft 180 kts 339°
2026-05-04 22:48 46.04332 18.20105 2674 ft 177 kts 351°
2026-05-04 22:48 46.05510 18.20469 2487 ft 174 kts 38°
2026-05-04 22:49 46.06138 18.21842 2312 ft 163 kts 85°
2026-05-04 22:49 46.05880 18.23325 2143 ft 153 kts 133°
2026-05-04 22:49 46.04964 18.23973 2039 ft 153 kts 175°
2026-05-04 22:49 46.03995 18.23784 1886 ft 138 kts 199°
2026-05-04 22:50 46.03203 18.23128 1661 ft 125 kts 205°
2026-05-04 22:50 46.02448 18.22711 1397 ft 107 kts 185°
2026-05-04 22:50 46.01742 18.22758 1189 ft 93 kts 172°
2026-05-04 22:50 46.01119 18.22931 1026 ft 89 kts 162°
2026-05-04 22:51 46.00566 18.23222 917 ft 82 kts 155°
2026-05-04 22:51 46.00037 18.23535 798 ft 83 kts 154°
2026-05-04 22:51 45.99505 18.23860 660 ft 82 kts 155°
2026-05-04 22:51 45.99037 18.24142 633 ft 62 kts 155°
2026-05-04 22:52 45.98796 18.24293 635 ft 15 kts 153°
2026-05-04 22:52 45.98773 18.24293 636 ft 3 kts 229°
2026-05-04 22:52 45.98773 18.24279 636 ft 2 kts 318°
2026-05-04 22:52 45.98849 18.24252 635 ft 23 kts 345°
2026-05-04 22:53 45.99055 18.24134 635 ft 39 kts 339°
2026-05-04 22:53 45.99296 18.23990 637 ft 29 kts 335°
2026-05-04 22:53 45.99448 18.23903 639 ft 18 kts 325°
2026-05-04 22:53 45.99527 18.23837 639 ft 4 kts 297°
2026-05-04 22:54 45.99522 18.23785 639 ft 8 kts 244°
2026-05-04 22:54 45.99496 18.23699 642 ft 11 kts 248°
2026-05-04 22:54 45.99456 18.23556 639 ft 19 kts 246°
2026-05-04 22:54 45.99428 18.23445 638 ft 2 kts 297°
2026-05-04 22:55 45.99451 18.23442 638 ft 8 kts 25°
2026-05-04 22:55 45.99487 18.23445 638 ft 2 kts 320°
2026-05-04 22:55 45.99491 18.23416 638 ft 4 kts 245°
2026-05-04 22:55 45.99488 18.23408 638 ft 0 kts 225°